DAEGU_AB current weather conditions

sailwx.info

Wind from 300 at 12 knots

Air temperature 5.0° C
Visibility: greater than 5.4 NM
Dewpoint -10.0° C

Last reported at 2017-Nov-19 08:00 UTC.
Time now 2017-Nov-19 08:45 UTC

Location: N 35°54' E 128°39'.
View on Google Maps.

See reports from other nearby stations

  
Tides and Currents Weather Stations Pressure Air Temp Water Temp Dewpoint Dewpoint Depression Visibility Wind Speed Wind Dir Waves Ship Positions
date/time (UTC)wind fromknots sea level pressurealtimeterstation pressurevisibilityair tempwater tempwave heightnotes
2017-Nov-19 08:00 300 12 5.4 5.0
2017-Nov-19 07:00 290 13 5.4 5.0
2017-Nov-19 06:00 310 12 gusting 21 5.4 6.0
2017-Nov-19 05:00 320 14 5.4 5.0
2017-Nov-19 04:00 290 13 5.4 4.0
2017-Nov-19 03:00 310 9 5.4 3.0
2017-Nov-19 02:00 280 5 5.4 3.0
2017-Nov-19 01:00 280 6 5.4 1.0
2017-Nov-19 00:00 300 6 5.4-0.0
2017-Nov-18 23:00 310 7 5.4-1.0
2017-Nov-18 22:00 290 8 5.4-3.0
2017-Nov-18 21:00 290 8 5.4-2.0
2017-Nov-18 20:00 310 11 5.4-1.0
2017-Nov-18 19:00 300 12 5.4-0.0
2017-Nov-18 18:00 290 6 5.4-1.0
2017-Nov-18 17:00 300 6 5.4-2.0
2017-Nov-18 16:00 290 7 5.4-0.0
2017-Nov-18 15:00 280 7 5.4-0.0
2017-Nov-18 14:00 300 7 5.4-0.0
2017-Nov-18 13:00 300 6 5.4-0.0
2017-Nov-18 12:00 310 6 5.4-0.0
2017-Nov-18 11:00 300 9 5.4 2.0
2017-Nov-18 10:00 300 9 5.4 2.0
2017-Nov-18 09:00 310 11 5.4 3.0
2017-Nov-18 08:00 310 11 gusting 20 5.4 4.0
2017-Nov-18 07:00 310 9 gusting 20 5.4 5.0
2017-Nov-18 06:00 310 11 gusting 22 5.4 6.0
2017-Nov-18 05:00 290 8 gusting 19 5.4 6.0
2017-Nov-18 04:00 290 9 gusting 20 5.4 5.0
2017-Nov-18 03:00 320 13 5.4 6.0
2017-Nov-18 02:00 310 12 5.4 5.0
2017-Nov-18 01:00 310 11 5.4 4.0
2017-Nov-18 00:00 310 9 5.4 3.0
2017-Nov-17 23:00 310 13 5.4 3.0
2017-Nov-17 22:00 310 11 5.4 3.0
2017-Nov-17 21:00 300 11 5.4 5.0
2017-Nov-17 20:00 300 13 5.4 6.0
2017-Nov-17 19:00 300 11 5.4 8.0
2017-Nov-17 18:00 300 6 5.4 9.0
2017-Nov-17 17:00 310 4 5.4 8.0
2017-Nov-17 16:00 320 2 5.4 8.0
2017-Nov-17 15:00 330 1 5.4 8.0
2017-Nov-17 14:00 340 0 5.4 8.0
2017-Nov-17 13:00 290 0 5.4 8.0
2017-Nov-17 12:00 310 0 5.4 9.0
2017-Nov-17 11:00 290 0 5.410.0
2017-Nov-17 10:00 290 0 5.410.0
2017-Nov-17 09:00 310 0 5.4 9.0
2017-Nov-17 08:00 280 0 5.411.0